GW3809 Weather Reports


Display with metric or nautical units.
time (UTC)temp
F
wind
direction
speed
MPH
gust
MPH
rain 1hr
in
rain 24hr
in
rain mn
in
humidity
%
barometer
mb
20260903195959 102 160 5.0 10.0 0.00 0.00 0.00 43 1010.3
20260903195455 102 148 12.0 17.0 0.00 0.00 0.00 44 1010.6
20260903194950 103 168 5.0 9.0 0.00 0.00 0.00 41 1010.6
20260903194445 102 206 6.0 11.0 0.00 0.00 0.00 43 1010.6
20260903193941 102 168 6.0 11.0 0.00 0.00 0.00 42 1010.8
20260903193437 102 169 5.0 9.0 0.00 0.00 0.00 43 1010.9
20260903192932 102 205 5.0 6.0 0.00 0.00 0.00 42 1010.8
20260903192429 102 172 4.0 6.0 0.00 0.00 0.00 42 1011.0
20260903191924 101 182 7.0 9.0 0.00 0.00 0.00 43 1011.1
20260903191420 101 177 5.0 11.0 0.00 0.00 0.00 43 1011.1
20260903190919 101 207 4.0 7.0 0.00 0.00 0.00 43 1011.3
20260903190413 101 185 6.0 9.0 0.00 0.00 0.00 42 1011.3
20260903185913 100 163 6.0 8.0 0.00 0.00 0.00 43 1011.5
20260903185409 100 183 5.0 12.0 0.00 0.00 0.00 44 1011.4
20260903184904 100 209 5.0 9.0 0.00 0.00 0.00 43 1011.8
20260903184401 100 150 6.0 11.0 0.00 0.00 0.00 42 1011.7
20260903183900 101 223 10.0 11.0 0.00 0.00 0.00 43 1012.0
20260903183355 101 186 4.0 7.0 0.00 0.00 0.00 44 1011.8
20260903182854 100 189 9.0 10.0 0.00 0.00 0.00 45 1012.0
20260903182353 99 146 5.0 10.0 0.00 0.00 0.00 45 1012.3
20260903181848 99 186 5.0 10.0 0.00 0.00 0.00 45 1012.4
20260903181343 99 154 12.0 13.0 0.00 0.00 0.00 45 1012.6
20260903180838 100 226 3.0 10.0 0.00 0.00 0.00 44 1012.6
20260903180337 98 183 6.0 9.0 0.00 0.00 0.00 46 1012.5
20260903175832 99 174 7.0 14.0 0.00 0.00 0.00 46 1012.6
20260903175331 99 176 7.0 10.0 0.00 0.00 0.00 46 1012.6
20260903174826 97 234 5.0 9.0 0.00 0.00 0.00 49 1012.8
20260903174321 97 159 8.0 14.0 0.00 0.00 0.00 48 1013.0
20260903173820 97 204 7.0 10.0 0.00 0.00 0.00 48 1013.1
20260903173316 97 165 10.0 12.0 0.00 0.00 0.00 48 1013.1
20260903172812 96 195 9.0 11.0 0.00 0.00 0.00 51 1013.1
20260903172306 96 213 4.0 13.0 0.00 0.00 0.00 50 1013.2
20260903171801 97 196 4.0 14.0 0.00 0.00 0.00 50 1013.2
20260903171257 96 162 9.0 13.0 0.00 0.00 0.00 51 1013.3
20260903170755 96 139 15.0 17.0 0.00 0.00 0.00 51 1013.4
20260903170246 96 189 4.0 9.0 0.00 0.00 0.00 52 1013.6
20260903165744 95 146 6.0 14.0 0.00 0.00 0.00 53 1013.6
20260903165238 95 137 6.0 14.0 0.00 0.00 0.00 54 1014.0
20260903164733 94 211 6.0 11.0 0.00 0.00 0.00 55 1013.7
20260903164230 94 124 6.0 13.0 0.00 0.00 0.00 56 1013.9
20260903163728 94 174 6.0 15.0 0.00 0.00 0.00 54 1013.9
20260903163226 94 144 7.0 9.0 0.00 0.00 0.00 55 1014.0
20260903162721 94 218 3.0 10.0 0.00 0.00 0.00 56 1014.0
20260903162217 94 161 9.0 10.0 0.00 0.00 0.00 56 1014.0
20260903161712 94 175 7.0 8.0 0.00 0.00 0.00 57 1014.0
20260903161202 93 167 7.0 11.0 0.00 0.00 0.00 57 1013.9
20260903160657 93 171 8.0 11.0 0.00 0.00 0.00 57 1013.9
20260903160151 92 211 6.0 8.0 0.00 0.00 0.00 60 1013.9
20260903155650 92 153 7.0 9.0 0.00 0.00 0.00 61 1013.9
20260903155145 92 164 4.0 13.0 0.00 0.00 0.00 61 1013.9
20260903154640 92 161 5.0 10.0 0.00 0.00 0.00 60 1013.8
20260903154131 91 181 6.0 12.0 0.00 0.00 0.00 62 1013.9
20260903153626 90 150 5.0 12.0 0.00 0.00 0.00 63 1013.8
20260903153122 90 177 7.0 11.0 0.00 0.00 0.00 64 1013.8
20260903152618 90 198 6.0 9.0 0.00 0.00 0.00 65 1014.1
20260903152114 89 182 5.0 12.0 0.00 0.00 0.00 66 1014.1
20260903151613 89 158 7.0 13.0 0.00 0.00 0.00 67 1014.0
20260903151109 89 149 6.0 13.0 0.00 0.00 0.00 67 1014.1
20260903150609 89 165 5.0 11.0 0.00 0.00 0.00 68 1014.1
20260903150103 89 157 6.0 11.0 0.00 0.00 0.00 68 1014.2
20260903145603 88 161 7.0 9.0 0.00 0.00 0.00 70 1014.3
20260903145058 88 170 6.0 15.0 0.00 0.00 0.00 69 1014.2
20260903144557 88 191 4.0 11.0 0.00 0.00 0.00 70 1014.1
20260903144054 88 165 4.0 6.0 0.00 0.00 0.00 72 1014.1
20260903143550 87 193 9.0 11.0 0.00 0.00 0.00 73 1014.3
20260903143045 87 194 6.0 7.0 0.00 0.00 0.00 75 1014.1
20260903142540 86 151 6.0 12.0 0.00 0.00 0.00 75 1014.3
20260903142037 86 165 5.0 11.0 0.00 0.00 0.00 75 1014.3
20260903141532 86 154 4.0 6.0 0.00 0.00 0.00 77 1014.3
20260903141027 85 182 7.0 11.0 0.00 0.00 0.00 78 1014.4
20260903140523 85 151 8.0 11.0 0.00 0.00 0.00 78 1014.4
20260903140018 85 190 6.0 9.0 0.00 0.00 0.00 79 1014.3
20260903135514 85 138 9.0 10.0 0.00 0.00 0.00 80 1014.4
20260903135014 84 158 6.0 7.0 0.00 0.00 0.00 80 1014.4
20260903134513 84 149 4.0 6.0 0.00 0.00 0.00 81 1014.2
20260903134009 84 180 4.0 10.0 0.00 0.00 0.00 81 1014.3
20260903133506 84 172 4.0 6.0 0.00 0.00 0.00 81 1014.2
20260903133002 83 140 9.0 10.0 0.00 0.00 0.00 82 1014.3
20260903132456 83 163 4.0 10.0 0.00 0.00 0.00 82 1014.3
20260903131951 83 184 4.0 6.0 0.00 0.00 0.00 82 1014.0
20260903131446 83 209 4.0 6.0 0.00 0.00 0.00 83 1014.1
20260903130945 83 188 4.0 7.0 0.00 0.00 0.00 83 1014.0
20260903130440 83 187 3.0 6.0 0.00 0.00 0.00 83 1014.0
20260903125939 83 157 4.0 5.0 0.00 0.00 0.00 83 1014.1
20260903125439 82 174 5.0 8.0 0.00 0.00 0.00 83 1013.8
20260903124933 82 140 5.0 7.0 0.00 0.00 0.00 83 1013.9
20260903124428 82 192 6.0 10.0 0.00 0.00 0.00 83 1014.0
20260903123927 82 169 4.0 8.0 0.00 0.00 0.00 83 1013.9
20260903123422 82 165 5.0 9.0 0.00 0.00 0.00 83 1013.9
20260903122921 82 202 4.0 9.0 0.00 0.00 0.00 83 1013.9
20260903122421 82 172 4.0 6.0 0.00 0.00 0.00 83 1013.9
20260903121919 82 172 5.0 6.0 0.00 0.00 0.00 83 1013.7
20260903121415 82 179 4.0 6.0 0.00 0.00 0.00 83 1013.8
20260903120911 82 174 4.0 7.0 0.00 0.00 0.00 83 1013.8
20260903120410 82 168 4.0 7.0 0.00 0.00 0.00 83 1013.9
20260903115908 82 149 8.0 12.0 0.00 0.00 0.00 83 1013.8
20260903115403 82 167 5.0 9.0 0.00 0.00 0.00 83 1013.6
20260903114857 82 177 4.0 7.0 0.00 0.00 0.00 83 1013.8
20260903114354 83 146 4.0 8.0 0.00 0.00 0.00 83 1013.8
20260903113849 83 166 6.0 8.0 0.00 0.00 0.00 83 1013.8
20260903113344 83 180 3.0 11.0 0.00 0.00 0.00 83 1013.9
20260903112840 83 163 7.0 7.0 0.00 0.00 0.00 83 1013.8
20260903112336 83 180 4.0 8.0 0.00 0.00 0.00 83 1013.7
20260903111834 83 185 4.0 7.0 0.00 0.00 0.00 83 1013.7
20260903111329 83 184 5.0 8.0 0.00 0.00 0.00 83 1013.7
20260903110825 83 156 7.0 9.0 0.00 0.00 0.00 83 1013.6
20260903110321 83 186 4.0 6.0 0.00 0.00 0.00 82 1013.8
20260903105820 83 169 4.0 7.0 0.00 0.00 0.00 82 1013.8
20260903105315 83 180 4.0 8.0 0.00 0.00 0.00 82 1013.8
20260903104815 83 165 3.0 9.0 0.00 0.00 0.00 82 1013.7
20260903104310 83 169 4.0 9.0 0.00 0.00 0.00 82 1013.7
20260903103807 83 177 6.0 12.0 0.00 0.00 0.00 82 1013.7
20260903103302 83 188 5.0 9.0 0.00 0.00 0.00 82 1013.8
20260903102757 83 200 5.0 7.0 0.00 0.00 0.00 82 1013.6
20260903102252 83 155 5.0 8.0 0.00 0.00 0.00 82 1013.8
20260903101750 83 162 4.0 10.0 0.00 0.00 0.00 82 1013.8
20260903101246 83 155 8.0 11.0 0.00 0.00 0.00 82 1013.6
20260903100741 83 152 7.0 10.0 0.00 0.00 0.00 82 1013.6
20260903100236 83 176 6.0 11.0 0.00 0.00 0.00 82 1013.6
20260903095733 83 157 9.0 10.0 0.00 0.00 0.00 82 1013.7
20260903095228 83 194 4.0 7.0 0.00 0.00 0.00 82 1013.8
20260903094723 83 180 8.0 9.0 0.00 0.00 0.00 82 1013.7
20260903094218 83 162 4.0 11.0 0.00 0.00 0.00 82 1014.0
20260903093713 83 185 6.0 8.0 0.00 0.00 0.00 81 1014.0
20260903093208 83 194 4.0 6.0 0.00 0.00 0.00 81 1014.0
20260903092703 84 180 5.0 9.0 0.00 0.00 0.00 81 1014.1
20260903092157 84 193 4.0 9.0 0.00 0.00 0.00 81 1014.1
20260903091656 84 174 4.0 9.0 0.00 0.00 0.00 81 1014.1
20260903091150 84 146 11.0 12.0 0.00 0.00 0.00 81 1014.0
20260903090646 84 181 5.0 10.0 0.00 0.00 0.00 81 1014.1
20260903090144 84 178 5.0 10.0 0.00 0.00 0.00 80 1014.0
20260903085643 84 174 7.0 11.0 0.00 0.00 0.00 80 1014.0
20260903085139 84 196 3.0 9.0 0.00 0.00 0.00 80 1014.0
20260903084636 84 176 7.0 12.0 0.00 0.00 0.00 80 1014.0
20260903084132 84 180 4.0 9.0 0.00 0.00 0.00 80 1014.2
20260903083628 84 184 8.0 9.0 0.00 0.00 0.00 80 1014.2
20260903083127 84 169 6.0 10.0 0.00 0.00 0.00 80 1014.3
20260903082622 84 185 5.0 10.0 0.00 0.00 0.00 79 1014.1
20260903082118 84 178 5.0 11.0 0.00 0.00 0.00 79 1014.0
20260903081612 84 179 6.0 10.0 0.00 0.00 0.00 79 1014.2
20260903081108 84 188 3.0 11.0 0.00 0.00 0.00 79 1014.2
20260903080604 84 142 8.0 17.0 0.00 0.00 0.00 79 1014.4
20260903075555 84 151 4.0 11.0 0.00 0.00 0.00 79 1014.4
20260903075050 84 152 5.0 13.0 0.00 0.00 0.00 78 1014.3
20260903074549 85 163 4.0 8.0 0.00 0.00 0.00 78 1014.2
20260903074044 85 155 6.0 9.0 0.00 0.00 0.00 77 1014.4
20260903073540 85 180 8.0 13.0 0.00 0.00 0.00 77 1014.3
20260903073036 85 151 8.0 12.0 0.00 0.00 0.00 77 1014.6
20260903072531 85 136 11.0 13.0 0.00 0.00 0.00 77 1014.5
20260903072028 85 170 7.0 12.0 0.00 0.00 0.00 77 1014.3
20260903071524 85 180 9.0 10.0 0.00 0.00 0.00 77 1014.3
20260903071019 85 177 8.0 13.0 0.00 0.00 0.00 78 1014.2
20260903070519 85 180 6.0 11.0 0.00 0.00 0.00 78 1014.3
20260903070015 85 173 8.0 13.0 0.00 0.00 0.00 79 1014.4
20260903065508 85 184 4.0 12.0 0.00 0.00 0.00 79 1014.3
20260903065007 85 164 9.0 12.0 0.00 0.00 0.00 79 1014.4
20260903064502 85 162 5.0 14.0 0.00 0.00 0.00 79 1014.3
20260903063958 85 150 11.0 12.0 0.00 0.00 0.00 79 1014.2
20260903063453 85 163 8.0 10.0 0.00 0.00 0.00 79 1014.3
20260903062949 85 159 12.0 15.0 0.00 0.00 0.00 79 1014.4
20260903062448 85 167 6.0 14.0 0.00 0.00 0.00 79 1014.4
20260903061943 85 151 7.0 13.0 0.00 0.00 0.00 79 1014.4
20260903061438 85 166 4.0 17.0 0.00 0.00 0.00 79 1014.4
20260903060934 85 166 6.0 13.0 0.00 0.00 0.00 78 1014.3
20260903060433 85 160 8.0 13.0 0.00 0.00 0.00 78 1014.4
20260903055933 85 160 11.0 12.0 0.00 0.00 0.00 78 1014.6
20260903055431 85 153 7.0 16.0 0.00 0.00 0.00 78 1014.5
20260903054930 85 178 6.0 15.0 0.00 0.00 0.00 77 1014.5
20260903054426 85 187 12.0 15.0 0.00 0.00 0.00 77 1014.7
20260903053921 85 153 7.0 12.0 0.00 0.00 0.00 77 1014.6
20260903053421 86 150 11.0 12.0 0.00 0.00 0.00 77 1014.6
20260903052918 86 163 9.0 13.0 0.00 0.00 0.00 77 1014.6
20260903052413 86 165 7.0 19.0 0.00 0.00 0.00 77 1014.8
20260903051908 86 170 6.0 13.0 0.00 0.00 0.00 77 1014.7
20260903051404 86 144 11.0 15.0 0.00 0.00 0.00 77 1014.9
20260903050859 86 154 11.0 13.0 0.00 0.00 0.00 77 1015.0
20260903050358 86 150 8.0 10.0 0.00 0.00 0.00 77 1014.7
20260903045853 86 157 6.0 14.0 0.00 0.00 0.00 77 1014.7
20260903045349 86 135 11.0 14.0 0.00 0.00 0.00 76 1014.7
20260903044846 86 164 6.0 16.0 0.00 0.00 0.00 76 1014.8
20260903044345 86 161 5.0 9.0 0.00 0.00 0.00 76 1014.9
20260903043842 86 169 6.0 12.0 0.00 0.00 0.00 76 1014.9
20260903043337 86 167 6.0 15.0 0.00 0.00 0.00 75 1015.0
20260903042836 86 163 7.0 15.0 0.00 0.00 0.00 76 1015.0
20260903042332 86 179 10.0 16.0 0.00 0.00 0.00 76 1014.9
20260903041827 86 199 4.0 11.0 0.00 0.00 0.00 76 1014.8
20260903041324 86 182 6.0 8.0 0.00 0.00 0.00 76 1015.0
20260903040819 86 168 8.0 13.0 0.00 0.00 0.00 76 1014.9
20260903040318 86 143 12.0 16.0 0.00 0.00 0.00 76 1014.7
20260903035814 86 178 7.0 12.0 0.00 0.00 0.00 76 1014.7
20260903035309 86 159 4.0 9.0 0.00 0.00 0.00 77 1014.9
20260903034805 86 139 12.0 16.0 0.00 0.00 0.00 77 1014.9
20260903034300 86 125 7.0 12.0 0.00 0.00 0.00 77 1014.8
20260903033754 86 156 7.0 12.0 0.00 0.00 0.00 76 1014.8
20260903033244 86 162 8.0 13.0 0.00 0.00 0.00 76 1014.4
20260903032738 87 179 6.0 10.0 0.00 0.00 0.00 76 1014.6
20260903032234 87 124 9.0 13.0 0.00 0.00 0.00 75 1014.6
20260903031730 87 154 8.0 14.0 0.00 0.00 0.00 75 1014.4
20260903031228 87 155 6.0 14.0 0.00 0.00 0.00 75 1014.6
20260903030720 87 131 13.0 18.0 0.00 0.00 0.00 75 1014.3
20260903030215 87 135 13.0 15.0 0.00 0.00 0.00 74 1014.1
20260903025710 87 129 7.0 18.0 0.00 0.00 0.00 74 1014.1
20260903025206 87 145 8.0 11.0 0.00 0.00 0.00 74 1014.2
20260903024705 87 140 11.0 17.0 0.00 0.00 0.00 73 1013.9
20260903024204 87 151 6.0 14.0 0.00 0.00 0.00 73 1013.9
20260903023700 87 141 6.0 16.0 0.00 0.00 0.00 73 1013.8
20260903023155 88 134 12.0 17.0 0.00 0.00 0.00 72 1013.8
20260903022650 88 150 9.0 11.0 0.00 0.00 0.00 72 1013.6
20260903022149 88 137 11.0 17.0 0.00 0.00 0.00 71 1013.4
20260903021644 88 153 8.0 15.0 0.00 0.00 0.00 71 1013.5
20260903021144 88 137 11.0 16.0 0.00 0.00 0.00 70 1013.1
20260903020639 89 156 7.0 16.0 0.00 0.00 0.00 69 1013.1
20260903020133 89 161 9.0 17.0 0.00 0.00 0.00 68 1013.0
20260903015630 89 138 8.0 22.0 0.00 0.00 0.00 68 1013.0
20260903015125 90 170 5.0 18.0 0.00 0.00 0.00 66 1012.7
20260903014624 90 162 8.0 19.0 0.00 0.00 0.00 65 1012.9
20260903014124 90 142 10.0 15.0 0.00 0.00 0.00 64 1012.7
20260903013619 91 152 14.0 20.0 0.00 0.00 0.00 63 1012.6
20260903013114 91 137 10.0 17.0 0.00 0.00 0.00 61 1012.5
20260903012613 91 145 13.0 19.0 0.00 0.00 0.00 61 1012.4
20260903012112 91 156 9.0 16.0 0.00 0.00 0.00 60 1012.2
20260903011612 92 160 11.0 14.0 0.00 0.00 0.00 59 1012.3
20260903011112 92 151 6.0 12.0 0.00 0.00 0.00 58 1012.4
20260903010607 93 145 5.0 13.0 0.00 0.00 0.00 56 1012.1
20260903010105 93 137 10.0 12.0 0.00 0.00 0.00 54 1012.1
20260903005600 93 149 6.0 13.0 0.00 0.00 0.00 52 1012.1
20260903005056 94 149 9.0 15.0 0.00 0.00 0.00 51 1012.0
20260903004556 94 133 11.0 16.0 0.00 0.00 0.00 50 1012.1
20260903004051 94 151 5.0 12.0 0.00 0.00 0.00 49 1012.0
20260903003546 95 157 9.0 19.0 0.00 0.00 0.00 48 1012.0
20260903003041 95 160 8.0 13.0 0.00 0.00 0.00 47 1011.9
20260903002536 95 172 6.0 13.0 0.00 0.00 0.00 46 1011.9
20260903002031 95 136 7.0 17.0 0.00 0.00 0.00 45 1011.9
20260903001526 96 133 8.0 13.0 0.00 0.00 0.00 46 1011.8
20260903001025 96 138 8.0 18.0 0.00 0.00 0.00 46 1012.0
20260903000521 96 119 11.0 19.0 0.00 0.00 0.00 46 1011.8
20260903000020 96 140 15.0 16.0 0.00 0.00 0.00 47 1011.7
20260902235514 96 138 11.0 16.0 0.00 0.00 0.00 47 1011.5
20260902235009 97 144 11.0 13.0 0.00 0.00 0.00 46 1011.4
20260902234503 97 139 11.0 15.0 0.00 0.00 0.00 46 1011.4
20260902234002 97 154 9.0 17.0 0.00 0.00 0.00 46 1011.6
20260902233456 98 144 9.0 16.0 0.00 0.00 0.00 45 1011.5
20260902232950 98 150 8.0 18.0 0.00 0.00 0.00 44 1011.5
20260902232445 98 132 10.0 15.0 0.00 0.00 0.00 44 1011.5
20260902231944 99 135 9.0 15.0 0.00 0.00 0.00 42 1011.5
20260902231439 99 147 9.0 13.0 0.00 0.00 0.00 41 1011.6
20260902230934 99 157 6.0 13.0 0.00 0.00 0.00 41 1011.5
20260902230433 100 137 16.0 18.0 0.00 0.00 0.00 39 1011.5
20260902225927 100 153 9.0 11.0 0.00 0.00 0.00 36 1011.5
20260902225417 100 146 8.0 17.0 0.00 0.00 0.00 36 1011.5
20260902224915 100 155 11.0 12.0 0.00 0.00 0.00 35 1011.6
20260902224415 100 184 4.0 15.0 0.00 0.00 0.00 35 1011.5
20260902223913 100 164 7.0 15.0 0.00 0.00 0.00 35 1011.6
20260902223412 100 190 4.0 12.0 0.00 0.00 0.00 35 1011.6
20260902222907 100 168 4.0 11.0 0.00 0.00 0.00 36 1011.5
20260902222405 100 132 13.0 17.0 0.00 0.00 0.00 36 1011.6
20260902221905 101 172 7.0 14.0 0.00 0.00 0.00 35 1011.5
20260902221404 101 132 12.0 14.0 0.00 0.00 0.00 36 1011.5
20260902220900 101 133 10.0 14.0 0.00 0.00 0.00 36 1011.4
20260902220400 101 145 6.0 16.0 0.00 0.00 0.00 36 1011.5
20260902215855 101 147 4.0 13.0 0.00 0.00 0.00 37 1011.6
20260902215350 101 155 7.0 12.0 0.00 0.00 0.00 37 1011.6
20260902214846 101 134 12.0 12.0 0.00 0.00 0.00 38 1011.6
20260902214345 101 132 6.0 15.0 0.00 0.00 0.00 37 1011.5
20260902213839 102 134 10.0 13.0 0.00 0.00 0.00 37 1011.7
20260902213335 101 155 5.0 18.0 0.00 0.00 0.00 37 1011.7
20260902212833 102 137 13.0 15.0 0.00 0.00 0.00 37 1011.8
20260902212331 101 178 5.0 11.0 0.00 0.00 0.00 38 1011.7
20260902211827 102 167 8.0 15.0 0.00 0.00 0.00 38 1011.8
20260902211323 102 135 11.0 14.0 0.00 0.00 0.00 39 1011.8
20260902210818 101 141 6.0 11.0 0.00 0.00 0.00 39 1012.0
20260902210317 102 129 9.0 13.0 0.00 0.00 0.00 39 1011.8
20260902205815 101 140 5.0 10.0 0.00 0.00 0.00 40 1011.9
20260902205310 102 136 9.0 12.0 0.00 0.00 0.00 39 1012.0
20260902204806 101 163 4.0 11.0 0.00 0.00 0.00 40 1012.1
20260902204301 101 145 9.0 12.0 0.00 0.00 0.00 41 1012.2
20260902203756 102 151 5.0 11.0 0.00 0.00 0.00 39 1012.2
20260902203251 102 154 5.0 8.0 0.00 0.00 0.00 38 1012.5
20260902202746 102 131 8.0 15.0 0.00 0.00 0.00 38 1012.5
20260902202242 103 166 7.0 9.0 0.00 0.00 0.00 38 1012.5
20260902201739 102 227 9.0 12.0 0.00 0.00 0.00 39 1012.7
20260902201237 102 153 3.0 9.0 0.00 0.00 0.00 39 1012.7
20260902200733 102 208 2.0 8.0 0.00 0.00 0.00 38 1012.7